Location: Kuffner-Sternwarte
(48.2130°N, 16.2960°E)
Time: 06:29:14
(UTC+02:00)

Envisat - Pass Details

Date: 21 September 2024
Orbit: 762 x 764 km, 98.3° (Epoch: 04 October)

Event Time Altitude Azimuth Distance (km) Brightness Sun altitude
Rises 05:38:31 0° 3° (N) 3,238 6.5 -11.0°
Reaches altitude 10° 05:41:21 10° 347° (NNW) 2,307 5.5 -10.6°
Maximum altitude 05:44:58 20° 301° (WNW) 1,707 4.4 -10.0°
Enters shadow 05:48:02 12° 260° (W) 2,150 4.6 -9.5°
